DAL921 KATL-KDFW

Flight info

Callsign DAL921
Flight time N/A
Altitude 40000
Route KAJIN2 STNGA MLU YUYUN WHINY4
Aircraft A332/H-SDE3GHIJ2J3J5M1RVWXY/LB2D1

Departure

Time 2026-05-06 18:09
Airport Hartsfield Jackson Atlanta International Airport (KATL)

Arrival

Time N/A
Airport Dallas Fort Worth International Airport (KDFW)
Time Latitude Longitude Altitude Speed Heading
2026-05-06 17:32 33.63942 -84.42646 1010 ft 0 kts 90°
2026-05-06 17:58 33.63942 -84.42667 1010 ft 4 kts 80°
2026-05-06 17:58 33.63934 -84.42697 1010 ft 4 kts 56°
2026-05-06 17:58 33.63915 -84.42720 1010 ft 4 kts 29°
2026-05-06 17:58 33.63891 -84.42731 1010 ft 4 kts
2026-05-06 17:59 33.63869 -84.42733 1010 ft 0 kts 360°
2026-05-06 18:02 33.63872 -84.42733 1010 ft 1 kts 359°
2026-05-06 18:02 33.63880 -84.42733 1010 ft 1 kts 357°
2026-05-06 18:03 33.63897 -84.42733 1010 ft 6 kts
2026-05-06 18:03 33.63957 -84.42733 1010 ft 11 kts 359°
2026-05-06 18:03 33.64061 -84.42733 1010 ft 16 kts
2026-05-06 18:03 33.64173 -84.42734 1010 ft 17 kts 360°
2026-05-06 18:04 33.64291 -84.42733 1010 ft 17 kts 358°
2026-05-06 18:04 33.64419 -84.42726 1010 ft 16 kts 13°
2026-05-06 18:04 33.64464 -84.42667 1010 ft 8 kts 80°
2026-05-06 18:04 33.64469 -84.42568 1010 ft 15 kts 90°
2026-05-06 18:05 33.64468 -84.42422 1010 ft 19 kts 92°
2026-05-06 18:05 33.64476 -84.42253 1010 ft 22 kts 73°
2026-05-06 18:05 33.64536 -84.42071 1010 ft 26 kts 83°
2026-05-06 18:05 33.64542 -84.41848 1010 ft 27 kts 90°
2026-05-06 18:06 33.64543 -84.41634 1011 ft 25 kts 90°
2026-05-06 18:06 33.64542 -84.41427 1011 ft 25 kts 90°
2026-05-06 18:06 33.64542 -84.41219 1011 ft 25 kts 90°
2026-05-06 18:06 33.64542 -84.41007 1010 ft 26 kts 90°
2026-05-06 18:07 33.64554 -84.40799 1010 ft 21 kts 64°
2026-05-06 18:07 33.64570 -84.40675 1009 ft 13 kts 90°
2026-05-06 18:07 33.64597 -84.40582 1009 ft 12 kts 47°
2026-05-06 18:07 33.64672 -84.40595 1007 ft 12 kts 309°
2026-05-06 18:08 33.64681 -84.40646 1007 ft 0 kts 269°
2026-05-06 18:08 33.64681 -84.40856 1010 ft 63 kts 270°
2026-05-06 18:08 33.64677 -84.41693 1011 ft 134 kts 270°
2026-05-06 18:08 33.64670 -84.43000 1387 ft 165 kts 259°
2026-05-06 18:09 33.64709 -84.44456 2232 ft 178 kts 264°
2026-05-06 18:09 33.64745 -84.46001 3171 ft 197 kts 259°
2026-05-06 18:09 33.64990 -84.47680 3856 ft 215 kts 281°
2026-05-06 18:09 33.65359 -84.49501 4416 ft 234 kts 271°
2026-05-06 18:10 33.65699 -84.51445 5065 ft 240 kts 274°
2026-05-06 18:10 33.66021 -84.53471 5564 ft 253 kts 267°
2026-05-06 18:10 33.66426 -84.55501 6584 ft 243 kts 277°
2026-05-06 18:10 33.66794 -84.57528 7131 ft 253 kts 269°
2026-05-06 18:11 33.67078 -84.59569 8121 ft 245 kts 271°
2026-05-06 18:11 33.67234 -84.60927 8583 ft 248 kts 265°
2026-05-06 18:11 33.67652 -84.63563 10053 ft 235 kts 270°
2026-05-06 18:11 33.68001 -84.65486 10740 ft 241 kts 271°
2026-05-06 18:12 33.68313 -84.67559 11046 ft 263 kts 274°
2026-05-06 18:12 33.68673 -84.69807 11324 ft 285 kts 275°
2026-05-06 18:12 33.69066 -84.72224 11623 ft 304 kts 276°
2026-05-06 18:12 33.69364 -84.74780 12132 ft 313 kts 270°
2026-05-06 18:13 33.69213 -84.77401 12793 ft 317 kts 257°
2026-05-06 18:13 33.68571 -84.79949 13544 ft 321 kts 249°
2026-05-06 18:13 33.67754 -84.82465 14221 ft 326 kts 247°
2026-05-06 18:13 33.66903 -84.85012 14863 ft 329 kts 249°
2026-05-06 18:14 33.66083 -84.87578 15585 ft 330 kts 249°
2026-05-06 18:14 33.65270 -84.90124 16290 ft 332 kts 249°
2026-05-06 18:14 33.64447 -84.92724 16982 ft 334 kts 251°
2026-05-06 18:14 33.63628 -84.95336 17687 ft 335 kts 251°
2026-05-06 18:15 33.62796 -84.97963 18369 ft 338 kts 251°
2026-05-06 18:15 33.61961 -85.00602 18959 ft 340 kts 250°
2026-05-06 18:15 33.61100 -85.03253 19550 ft 342 kts 250°
2026-05-06 18:15 33.60217 -85.05925 20113 ft 345 kts 250°
2026-05-06 18:16 33.59332 -85.08615 20635 ft 347 kts 250°
2026-05-06 18:16 33.58447 -85.11321 21124 ft 351 kts 250°
2026-05-06 18:16 33.57550 -85.14073 21590 ft 355 kts 250°
2026-05-06 18:16 33.56662 -85.16799 22128 ft 356 kts 250°
2026-05-06 18:17 33.55758 -85.19575 22673 ft 358 kts 250°
2026-05-06 18:17 33.54920 -85.22391 23194 ft 359 kts 255°
2026-05-06 18:17 33.54299 -85.25291 23688 ft 360 kts 257°
2026-05-06 18:17 33.53750 -85.28225 24111 ft 362 kts 258°
2026-05-06 18:18 33.53207 -85.31187 24518 ft 364 kts 258°
2026-05-06 18:18 33.52662 -85.34159 24853 ft 367 kts 258°
2026-05-06 18:18 33.52110 -85.37157 25236 ft 369 kts 258°
2026-05-06 18:18 33.51553 -85.40170 25614 ft 370 kts 258°
2026-05-06 18:19 33.50994 -85.43182 25965 ft 373 kts 258°
2026-05-06 18:19 33.50426 -85.46241 26262 ft 377 kts 258°
2026-05-06 18:19 33.49853 -85.49321 26590 ft 380 kts 258°
2026-05-06 18:19 33.49281 -85.52387 26941 ft 382 kts 258°
2026-05-06 18:20 33.48699 -85.55505 27290 ft 384 kts 258°
2026-05-06 18:20 33.48113 -85.58636 27630 ft 386 kts 258°
2026-05-06 18:20 33.47509 -85.61781 27942 ft 388 kts 256°
2026-05-06 18:20 33.46832 -85.64925 28154 ft 391 kts 251°
2026-05-06 18:21 33.46109 -85.68084 28262 ft 395 kts 252°
2026-05-06 18:21 33.45424 -85.71271 28478 ft 396 kts 252°
2026-05-06 18:21 33.44988 -85.73390 28624 ft 396 kts 252°
2026-05-06 18:21 33.44346 -85.76607 28827 ft 397 kts 253°
2026-05-06 18:22 33.43715 -85.79834 29013 ft 398 kts 253°
2026-05-06 18:22 33.43095 -85.83062 29270 ft 398 kts 253°